OpenBCM V1.07b12 (Linux)

Packet Radio Mailbox

SR1BSZ

[Szczecin_PL JO73GK]

 Login: GUEST





  
I0OJJ  > KEPS     13.09.25 07:03z 313 Lines 14851 Bytes #12 (0) @ AMSAT
BID : ORB25256.1
Subj: 2Line Orbital Elements 25256.AMSAT
Path: SR1BSZ<EA2RCF<I0OJJ
Sent: 250913/0025z @:I0OJJ.ITA.EU [Rome] obcm1.08-10-g596e
From: I0OJJ @ I0OJJ.ITA.EU (Gustavo)
To:   KEPS @ AMSAT
X-Info: This message was generated automatically


QST de W1STR

AMSAT Orbital Elements for Amateur Satellites in TLE Format
From Orbital Analysis Office
New England Sci-Tech STEM Education Center
Natick MA September 13, 2025
To all radio amateurs


These element sets describe the orbits of various satellites 
in use by the amateur radio community. For details see:
www.amsat.org/keplerian-elements-formats/

A daily update of element sets is available at:
www.amsat.org/tle/daily-bulletin.txt
or without bulletin text:
www.amsat.org/tle/dailytle.txt


AO-07
1 07530U 74089B   25255.46997264 -.00000048  00000-0 -99372-5 0  9998
2 07530 101.9982 260.7565 0011960 302.3725 226.5413 12.53691482325719
UO-11
1 14781U 84021B   25255.45601418  .00001370  00000-0  14894-3 0  9994
2 14781  97.7652 220.0109 0008613  33.3392 326.8366 14.89659240215767
AO-27
1 22825U 93061C   25255.60245394  .00000072  00000-0  44587-4 0  9991
2 22825  98.7278 317.5925 0008259 187.1009 173.0058 14.30827873667303
FO-29
1 24278U 96046B   25255.61240677 -.00000022  00000-0  10154-4 0  9990
2 24278  98.5593 136.9386 0350902  96.3249 267.7971 13.53253557435620
NOAA-15
1 25338U 98030A   25255.53962735  .00000081  00000-0  50991-4 0  9997
2 25338  98.5321 278.3712 0011451  82.4004 277.8477 14.27015212421690
GO-32
1 25397U 98043D   25255.38630680  .00000053  00000-0  43057-4 0  9994
2 25397  98.9810 236.5286 0000633 352.6803   7.4366 14.24337845411782
ISS
1 25544U 98067A   25255.41795246  .00007121  00000-0  13147-3 0  9997
2 25544  51.6331 234.7166 0004273 330.8995  29.1755 15.50252392528696
NO-44
1 26931U 01043C   25255.22977282  .00000110  00000-0  72395-4 0  9999
2 26931  67.0488 243.1112 0007041 275.3555  84.6743 14.31776543250655
SO-50
1 27607U 02058C   25255.44605504  .00001090  00000-0  15114-3 0  9999
2 27607  64.5510 267.6459 0066073 314.0624  45.5051 14.81874215223284
CO-55
1 27844U 03031E   25255.46469455  .00000234  00000-0  12068-3 0  9993
2 27844  98.6788 262.5275 0008416 272.8876  87.1340 14.24065282152141
CO-57
1 27848U 03031J   25254.47359426  .00000224  00000-0  11804-3 0  9999
2 27848  98.6818 261.4831 0008444 296.1791  63.8519 14.23389837151727
RS-22
1 27939U 03042A   25255.60546394  .00000945  00000-0  15687-3 0  9993
2 27939  98.3367  67.4144 0012517  70.9438   4.2719 14.72577779174686
CO-58
1 28895U 05043F   25254.65044448  .00001500  00000-0  25079-3 0  9999
2 28895  98.2631  40.2618 0014595  13.5260 346.6335 14.71328427 60774
CO-65
1 32785U 08021C   25255.55799613  .00003947  00000-0  27974-3 0  9995
2 32785  97.7948 227.5298 0007789 246.2402 113.8008 15.05373654943362
CO-66
1 32791U 08021J   25255.38609630  .00009834  00000-0  44632-3 0  9993
2 32791  97.7369 237.7271 0003930 158.3588 201.7813 15.21010516944895
RS-30
1 32953U 08025A   25255.68908222  .00000031  00000-0  15452-3 0  9997
2 32953  82.5072 168.0449 0018431 195.2563 164.7963 12.43168112785216
NOAA-19
1 33591U 09005A   25255.55946232  .00000080  00000-0  66644-4 0  9998
2 33591  98.9890 320.7615 0014831  95.6586 264.6278 14.13406257855260
SRMSAT
1 37841U 11058D   25255.46443025  .00000389  00000-0  67581-4 0  9996
2 37841  19.9723 300.3537 0011892  29.3974 359.0048 14.11463242718533
ZACUBE-1
1 39417U 13066B   25255.63305172  .00004865  00000-0  41379-3 0  9996
2 39417  97.7892 212.2332 0045935  94.3054 266.3419 14.97483004639137
Delfi-N3xt
1 39428U 13066N   25255.52309011  .00007360  00000-0  72740-3 0  9991
2 39428  97.8285 172.1515 0084663  48.5993 312.2461 14.89527624633205
GOMX-1
1 39430U 13066Q   25255.37884066  .00001358  00000-0  21667-3 0  9998
2 39430  97.6726 108.2009 0130297 248.7780 109.9466 14.67986136629133
LO-74
1 39440U 13066AA  25255.55196314  .00002405  00000-0  24327-3 0  9991
2 39440  97.8552 199.5210 0059755 225.4186 134.2147 14.90653187635587
AO-73
1 39444U 13066AE  25254.89143693  .00006518  00000-0  47187-3 0  9991
2 39444  97.7930 217.2793 0043607  69.6639 290.9263 15.03570931637754
DTUSAT-2
1 40030U 14033W   25255.39198048  .00005103  00000-0  32230-3 0  9991
2 40030  98.0658 231.9215 0011306  98.6495 261.6014 15.09504949610698
EO-80
1 40032U 14033Y   25255.47360544  .00005686  00000-0  35781-3 0  9994
2 40032  98.0540 231.5298 0009921  50.6346 309.5759 15.09594775610683
LILACSAT-2
1 40908U 15049K   25255.61202215  .00010702  00000-0  26050-3 0  9994
2 40908  97.5030 278.3751 0009392 166.1971 193.9533 15.41087113552853
IO-86
1 40931U 15052B   25151.18580175  .00001241  00000-0  78118-4 0  9996
2 40931   6.0006  24.0987 0012733 338.8432  21.1169 14.78805930523159
Horyu-4
1 41340U 16012D   25255.56663480  .00026306  00000-0  60756-3 0  9993
2 41340  30.9953 211.2993 0006300 318.8230  41.1942 15.41267768527433
Lapan A3
1 41603U 16040E   25255.65090287  .00003008  00000-0  10438-3 0  9991
2 41603  97.1419 256.5844 0008895 294.1744  65.8568 15.30502319512322
CAS-2T
1 41847U 16066G   25255.49920107  .00000861  00000-0  13249-3 0  9991
2 41847  98.4131 329.1179 0344157 251.2178 105.1389 14.43707963464717
CAS-4B
1 42759U 17034B   25255.66676539  .00162641  00000-0  73789-3 0  9996
2 42759  43.0002 108.9506 0023821 249.3983 110.4333 15.82232150457551
CAS-4A
1 42761U 17034D   25254.07102038  .00184541  00000-0  72414-3 0  9998
2 42761  43.0036 114.3127 0024317 244.3693 115.4667 15.85181319457339
TechnoSat
1 42829U 17042E   25255.24532742  .00002260  00000-0  17491-3 0  9992
2 42829  97.4020  59.5023 0016436 328.9014  31.1237 15.02331287444933
AO-91
1 43017U 17073E   25255.44154569  .00006097  00000-0  30532-3 0  9998
2 43017  97.5102 123.8368 0167538 202.5377 156.8433 15.06253265423484
S-Net D
1 43186U 18014G   25255.45207725  .00003500  00000-0  20343-3 0  9990
2 43186  97.5504 157.3877 0006900 255.8161 104.2303 15.12730255416718
S-Net B
1 43187U 18014H   25255.52488203  .00004128  00000-0  23935-3 0  9998
2 43187  97.5509 157.4362 0007651 249.8103 110.2306 15.12710944416721
S-Net A
1 43188U 18014J   25255.45212484  .00003488  00000-0  20268-3 0  9991
2 43188  97.5517 157.5270 0007527 250.9921 109.0495 15.12735624416719
S-Net C
1 43189U 18014K   25255.46136508  .00003749  00000-0  21769-3 0  9992
2 43189  97.5535 157.5664 0009112 242.6712 117.3592 15.12705170415267
Ten-Koh
1 43677U 18084G   25255.47262685  .00001449  00000-0  11863-3 0  9997
2 43677  98.0818  71.4913 0005828 308.7141  51.3561 15.01002104374475
PO-101
1 43678U 18084H   25255.60761144  .00001127  00000-0  98913-4 0  9992
2 43678  98.1093  75.4182 0008444 341.1500  18.9407 14.98749501374619
QO-100
1 43700U 18090A   25255.59221229  .00000138  00000-0  00000-0 0  9995
2 43700   0.0185 139.1106 0001466  70.3346  21.4028  1.00272286 24899
MinXSS-2
1 43758U 18099A   25254.82267321  .00014573  00000-0  52392-3 0  9997
2 43758  97.4924 321.2997 0011619 177.7062 182.4233 15.28673102371352
AO-95
1 43770U 18099N   25254.71536614  .00008984  00000-0  43340-3 0  9995
2 43770  97.4817 311.8132 0009173 238.7322 121.3014 15.18884385370839
SNUSat 2
1 43782U 18099AA  25254.71273407  .00005760  00000-0  30343-3 0  9994
2 43782  97.4500 307.7759 0011955 180.3130 179.8097 15.15929217370751
SnugLite
1 43784U 18099AC  25254.65886849  .00007214  00000-0  34549-3 0  9997
2 43784  97.4315 307.4926 0003924 163.8890 196.2471 15.19236182370919
ITASat 1
1 43786U 18099AE  25254.69530998  .00006155  00000-0  34125-3 0  9997
2 43786  97.4469 306.9810 0012816 236.5654 123.4353 15.14073843370697
EAGLET 1
1 43790U 18099AJ  25255.41618493  .00003105  00000-0  19571-3 0  9990
2 43790  97.4667 307.3085 0010967 217.4762 142.5703 15.09815683370370
ESEO
1 43792U 18099AL  25254.62082476  .00001544  00000-0  11914-3 0  9998
2 43792  97.4367 298.5147 0011768 198.8073 161.2720 15.02928972369943
JO-97
1 43803U 18099AX  25254.41709683  .00010008  00000-0  42903-3 0  9991
2 43803  97.4565 312.7345 0007856 166.3035 193.8416 15.22924261371042
Suomi 100
1 43804U 18099AY  25254.72360924  .00009240  00000-0  42968-3 0  9994
2 43804  97.4628 312.0454 0012384 173.3127 186.8275 15.20117432370999
ISAT
1 43879U 18111D   25255.49143893  .00020081  00000-0  61698-3 0  9997
2 43879  97.5872 172.1761 0006633 199.6441 160.4547 15.33725183368224
UWE-4
1 43880U 18111E   25255.48391923  .00014101  00000-0  50614-3 0  9999
2 43880  97.5815 169.9257 0009116 226.4518 133.5965 15.28761785368115
Sparrow
1 43881U 18111F   25255.58580923  .00022464  00000-0  65763-3 0  9993
2 43881  97.6036 175.5463 0003374 244.1407 115.9488 15.35246836368340
Prox-1
1 44339U 19036A   25255.43062860  .00009282  00000-0  11133-2 0  9992
2 44339  23.9954 157.9151 0006775  72.7556 287.3682 14.81881388332096
Taurus 1
1 44530U 19059C   25255.64456690  .00004890  00000-0  88139-3 0  9992
2 44530  98.6175  39.6736 0009714 102.3443 257.8848 14.66989065317878
Duchifat 3
1 44854U 19089C   25255.59448141  .00064655  00000-0  87813-3 0  9993
2 44854  36.9378 107.2779 0007703 337.7976  22.2449 15.56492083317776
TO-108
1 44881U 19093C   25255.65860368  .00000753  00000-0  92713-4 0  9999
2 44881  97.7856 329.2980 0012312 280.3948  79.5880 14.85784238310196
FloripaSat 1
1 44885U 19093G   25255.60891250  .00004545  00000-0  37511-3 0  9999
2 44885  97.8169 343.4515 0007983 246.2497 113.7889 14.99480763310986
RS-44
1 44909U 19096E   25255.46586137  .00000025  00000-0  47070-4 0  9999
2 44909  82.5254 164.2533 0218519  73.7526 288.7493 12.79743314266820
UPMSat 2
1 46276U 20061E   25255.45816959  .00179891  13609-4  63380-3 0  9991
2 46276  97.2311 334.0749 0003330 223.9676 136.1332 15.89136139280414
SALSAT
1 46495U 20068K   25255.20544936  .00005192  00000-0  21691-3 0  9995
2 46495  97.8707 237.7366 0010919 182.5414 177.5769 15.24061451272931
